Date,TemperatureHighF,TemperatureAvgF,TemperatureLowF,DewpointHighF,DewpointAvgF,DewpointLowF,HumidityHigh,HumidityAvg,HumidityLow,PressureMaxIn,PressureMinIn,WindSpeedMaxMPH,WindSpeedAvgMPH,GustSpeedMaxMPH,PrecipitationSumIn
2013-1-1,20,3,-12,18,1,-14,97,92,82,30.24,29.98,5,0,8,0.00
2013-1-2,21,19,15,21,18,15,99,98,94,30.05,29.91,8,0,12,0.00
2013-1-3,19,14,10,18,11,7,95,89,77,30.23,30.05,13,3,14,0.00
2013-1-5,20,17,15,19,16,14,97,95,93,29.99,29.93,5,0,9,0.00
2013-1-6,21,16,9,18,13,6,98,88,73,30.19,29.94,8,1,14,0.00
2013-1-7,36,28,17,27,23,16,94,84,69,29.94,29.82,10,1,15,0.02
2013-1-8,35,26,13,29,24,13,99,92,76,29.94,29.70,9,1,15,0.02
2013-1-9,33,29,24,29,24,20,93,80,68,30.32,29.85,17,3,29,0.02
2013-1-10,42,34,27,33,27,23,99,77,51,30.26,29.69,8,2,15,0.32
2013-1-11,40,36,33,40,36,33,99,99,99,29.69,29.31,6,0,12,0.18
2013-1-12,37,14,2,37,12,-1,99,90,80,30.03,29.33,13,4,23,0.04
2013-1-13,7,2,-1,3,0,-3,94,90,83,30.19,30.02,8,1,9,0.00
2013-1-14,11,5,0,7,3,-1,97,89,77,30.37,30.19,4,0,9,0.00
2013-1-15,27,17,6,19,12,5,98,83,65,30.23,29.76,10,1,12,0.00
2013-1-16,34,25,10,32,18,-1,99,76,52,30.22,29.60,17,3,17,0.00
2013-1-17,18,10,4,12,4,-2,91,74,63,30.37,30.22,9,0,13,0.00
2013-1-18,38,26,14,30,23,11,97,88,72,30.25,29.69,12,1,12,0.02
2013-1-19,37,21,1,31,18,-4,99,87,65,30.19,29.65,19,5,32,0.02
2013-1-20,5,0,-4,-1,-4,-9,85,80,70,30.37,30.19,9,1,17,0.00
2013-1-21,-3,-8,-13,-8,-14,-18,84,77,71,30.32,30.24,9,1,20,0.00
2013-1-22,2,-7,-17,-2,-11,-19,90,82,73,30.36,30.19,0,0,0,0.00
2013-1-23,13,4,-7,8,-2,-14,93,76,59,30.59,30.11,21,4,30,0.00
2013-1-24,10,-1,-9,3,-7,-15,77,73,70,30.64,30.11,4,0,11,0.00
2013-1-25,17,11,1,13,5,-3,85,77,69,30.28,29.88,16,3,24,0.00
2013-1-26,23,9,-5,15,4,-7,95,80,66,30.30,30.07,4,0,9,0.00
2013-1-27,32,27,21,31,22,14,99,83,67,30.07,29.77,5,0,10,0.00
2013-1-28,34,31,28,34,31,28,99,99,99,29.85,29.62,7,0,9,0.28
2013-1-29,34,31,27,33,29,22,99,93,84,29.73,29.50,15,4,19,0.04
2013-1-30,26,16,7,22,12,3,90,85,79,29.72,29.63,19,8,22,0.02
2013-1-31,7,-2,-9,3,-7,-14,85,77,72,30.23,29.72,15,8,21,0.00
2013-2-1,0,-6,-15,-2,-10,-17,93,83,69,30.27,30.02,8,0,11,0.00
2013-2-2,9,4,-1,7,1,-3,95,88,74,30.15,29.94,7,0,7,0.00
2013-2-3,13,9,2,8,5,0,95,85,71,30.04,29.94,9,1,12,0.00
2013-2-4,12,8,0,11,2,-5,95,78,66,30.04,29.68,6,0,10,0.00
2013-2-5,27,20,5,25,16,4,98,86,67,30.04,29.60,14,2,20,0.00
2013-2-6,23,15,3,22,13,2,97,94,90,30.06,29.90,7,0,9,0.00
2013-2-7,27,24,22,25,22,21,99,93,82,30.24,29.98,10,3,14,0.00
2013-2-8,27,21,9,21,17,9,99,84,65,30.35,30.17,7,0,11,0.04
2013-2-9,31,28,23,30,26,21,99,94,91,30.17,29.90,8,2,13,0.02
2013-2-10,31,28,26,31,28,26,99,99,97,29.90,29.28,8,1,13,0.00
2013-2-11,29,24,14,29,21,12,99,89,77,30.00,29.31,17,5,21,0.00
2013-2-12,32,22,12,24,18,11,97,87,70,30.00,29.76,6,0,11,0.16
2013-2-13,38,28,19,32,25,19,99,90,69,29.76,29.54,0,0,9,0.18
2013-2-14,31,24,12,31,19,6,99,82,47,30.14,29.57,16,2,18,0.02
2013-2-15,16,9,3,6,4,0,93,79,62,30.28,30.14,11,2,15,0.00
2013-2-16,17,7,0,9,3,-2,96,86,68,30.22,30.07,0,0,6,0.00
2013-2-17,31,20,3,24,15,2,96,83,68,30.07,29.59,14,2,17,0.00
2013-2-18,32,22,7,30,18,3,95,86,78,29.79,29.47,17,4,31,0.00
2013-2-19,8,4,0,4,-3,-6,88,75,64,30.34,29.79,17,8,29,0.00
2013-2-20,15,2,-12,5,-3,-14,93,79,63,30.44,30.34,0,0,7,0.00
2013-2-21,23,13,1,18,7,-2,94,79,64,30.44,30.08,13,1,13,0.00
2013-2-22,27,23,19,24,21,18,99,92,80,30.08,29.83,9,1,15,0.16
2013-2-23,33,24,15,26,22,14,99,91,72,29.92,29.81,8,0,8,0.10
2013-2-24,32,18,3,23,15,3,99,89,69,30.08,29.92,0,0,0,0.00
2013-2-25,34,23,12,25,20,12,99,86,67,30.09,30.01,4,0,6,0.00
2013-2-26,35,24,12,28,21,12,99,88,71,30.04,29.88,11,3,13,0.00
2013-2-27,40,31,25,28,25,23,94,80,55,30.02,29.87,13,4,19,0.00
2013-2-28,29,27,21,25,21,16,84,78,70,30.21,30.02,11,2,13,0.00
2013-3-1,28,22,13,19,17,10,89,79,67,30.35,30.21,10,1,12,0.00
2013-3-2,29,17,1,16,10,0,99,78,54,30.34,30.14,0,0,5,0.00
2013-3-3,33,26,19,16,13,11,78,61,43,30.14,29.95,6,0,13,0.00
2013-3-4,26,24,23,23,19,12,99,82,57,30.01,29.93,9,1,12,0.00
2013-3-5,29,24,22,27,24,21,99,96,84,30.28,29.96,11,2,11,0.02
2013-3-6,26,20,7,22,17,5,97,89,74,30.40,30.28,7,1,10,0.02
2013-3-7,32,18,0,21,13,-1,99,82,61,30.37,30.25,4,0,10,0.02
2013-3-8,38,28,19,30,24,16,97,84,69,30.29,30.06,5,0,9,0.00
2013-3-9,36,35,33,36,34,29,99,97,82,30.06,29.66,8,0,11,0.66
2013-3-10,34,31,28,34,29,24,99,89,83,29.97,29.78,19,8,21,0.12
2013-3-11,30,26,22,24,20,-100,91,83,74,29.88,29.73,14,5,15,0.00
2013-3-12,28,23,20,20,16,11,92,75,52,30.17,29.80,18,5,22,0.00
2013-3-13,31,21,10,19,15,10,98,80,58,30.35,30.17,8,1,10,0.00
2013-3-14,39,30,22,29,25,18,99,83,66,30.21,29.99,5,0,9,0.18
2013-3-15,33,29,21,32,28,21,99,94,80,29.99,29.82,10,1,14,0.14
2013-3-16,22,18,8,22,13,2,98,81,63,30.22,29.90,16,2,18,0.04
2013-3-17,26,15,2,16,7,-2,89,72,58,30.25,29.84,12,1,14,0.00
2013-3-18,28,21,11,28,18,6,99,87,70,29.84,29.54,17,5,21,0.00
2013-3-19,22,13,6,10,4,-1,84,69,49,30.16,29.78,15,6,25,0.00
2013-3-20,20,11,3,7,2,-3,76,66,55,30.19,30.08,20,6,29,0.00
2013-3-21,24,12,-3,13,6,-5,95,74,58,30.11,30.02,6,0,9,0.00
2013-3-22,35,20,1,20,11,0,97,73,51,30.08,30.01,3,0,6,0.00
2013-3-23,37,27,13,22,18,11,94,69,50,30.13,30.06,0,0,0,0.00
2013-3-24,32,29,26,26,23,21,97,78,67,30.09,29.98,11,2,18,0.00
2013-3-25,33,32,31,22,22,20,67,63,62,30.20,30.18,4,0,8,0.00
2013-3-26,37,28,22,25,21,18,86,74,58,30.28,30.21,7,1,14,0.00
2013-3-27,37,24,18,22,19,16,93,79,54,30.32,30.28,0,0,0,0.00
2013-3-28,38,24,17,26,20,16,97,83,57,30.32,30.26,0,0,0,0.00
2013-3-29,43,36,33,39,28,26,88,73,66,30.27,30.05,6,1,8,0.02
2013-3-30,52,40,35,40,35,-100,98,89,61,30.04,29.83,8,2,11,0.46
2013-3-31,35,30,22,33,22,15,98,74,50,30.08,29.77,15,5,25,0.14
2013-4-1,32,22,15,18,14,12,88,72,51,30.25,30.08,11,3,17,0.00
2013-4-2,33,22,14,17,16,13,97,77,50,30.34,30.23,13,2,13,0.00
2013-4-3,37,21,14,22,16,13,97,83,53,30.37,30.32,3,0,13,0.00
2013-4-4,44,38,30,33,27,23,76,65,53,30.16,29.97,9,2,13,0.00
2013-4-5,41,31,20,33,26,19,97,82,47,30.23,29.90,10,1,13,0.00
2013-4-6,48,38,34,41,35,30,96,88,65,29.90,29.52,12,3,14,0.20
2013-4-7,48,39,34,38,34,30,97,83,63,29.91,29.72,9,1,10,0.16
2013-4-8,42,39,37,40,38,37,99,97,92,30.06,29.67,8,2,10,0.44
2013-4-9,43,37,33,37,30,24,94,75,56,30.18,30.00,15,7,24,0.02
2013-4-10,40,36,32,25,23,22,69,61,51,30.18,29.90,15,4,19,0.00
2013-4-11,36,31,28,33,28,21,99,89,57,29.94,29.69,13,4,18,0.18
2013-4-12,34,30,27,30,28,27,99,93,76,29.83,29.67,10,2,13,0.20
2013-4-13,34,30,23,28,26,22,99,86,67,29.93,29.80,9,2,10,0.18
2013-4-14,33,30,22,33,28,21,99,91,75,29.94,29.47,14,3,17,0.36
2013-4-15,38,35,32,35,30,28,99,84,75,29.93,29.46,10,4,19,0.14
2013-4-16,43,36,32,30,28,26,85,74,57,30.31,29.93,10,2,15,0.10
2013-4-17,39,35,29,33,30,27,99,82,71,30.32,29.94,9,3,16,0.00
2013-4-18,32,31,30,32,31,30,99,99,99,29.96,29.51,0,0,0,0.06
2013-4-19,36,30,28,30,26,16,99,86,53,29.97,29.49,18,3,24,0.16
2013-4-20,38,26,16,22,17,13,95,70,41,30.27,29.97,0,0,0,0.02
2013-4-21,46,37,30,45,34,20,99,87,59,30.28,29.98,9,1,15,0.20
2013-4-22,40,35,30,38,31,27,99,86,63,30.23,30.11,13,3,19,0.16
2013-4-23,39,31,24,31,26,22,99,84,51,30.16,30.05,12,2,13,0.16
2013-4-24,49,33,24,36,24,-100,97,83,46,30.06,29.88,14,1,25,0.02
2013-4-25,47,37,29,33,30,28,97,79,51,30.18,29.96,14,1,18,0.02
2013-4-26,62,48,42,41,36,31,76,62,37,30.12,29.93,7,2,13,0.00
2013-4-27,70,43,34,45,35,32,96,77,27,30.13,29.86,0,0,7,0.00
2013-4-28,69,59,51,51,47,44,82,66,40,29.86,29.67,9,2,13,0.00
2013-4-29,71,55,45,46,43,38,81,66,36,29.82,29.58,6,1,9,0.00
2013-4-30,64,61,58,56,50,38,77,66,47,29.85,29.41,10,4,13,0.00
2013-5-1,50,40,33,36,34,31,98,78,58,30.28,30.01,8,4,18,0.04
2013-5-2,38,36,34,29,27,26,76,72,62,30.55,30.43,9,4,15,0.02
2013-5-3,38,34,30,35,29,24,97,83,67,30.43,30.17,11,4,17,0.02
2013-5-4,43,37,32,41,36,31,99,96,90,30.18,30.14,10,4,13,0.04
2013-5-5,64,46,37,48,41,36,99,84,55,30.18,30.06,6,1,9,0.02
2013-5-6,60,46,39,48,43,39,99,90,59,30.12,30.02,0,0,6,0.00
2013-5-7,67,53,47,48,46,45,96,81,45,30.05,29.94,0,0,0,0.00
2013-5-8,75,63,56,56,50,45,91,67,36,30.01,29.95,9,2,12,0.14
2013-5-9,58,52,44,53,46,30,93,82,62,30.12,29.97,14,6,22,0.10
2013-5-10,43,38,33,30,27,-100,82,69,60,30.14,30.11,8,1,18,0.00
2013-5-11,51,45,39,39,32,26,71,63,47,30.14,29.94,16,8,22,0.00
2013-5-12,39,32,28,27,26,24,86,76,58,30.23,30.11,6,0,6,0.00
2013-5-13,65,40,31,47,31,25,90,73,50,30.11,29.63,0,0,7,0.04
2013-5-14,69,55,45,49,46,43,94,75,49,29.67,29.59,4,0,13,0.02
2013-5-15,69,59,50,49,46,43,78,63,49,29.92,29.79,4,0,4,0.00
2013-5-16,65,56,49,48,46,43,90,72,50,29.91,29.80,0,0,5,0.00
2013-5-17,62,57,55,56,46,-100,93,82,61,29.99,29.94,7,2,11,0.00
2013-5-18,77,69,54,63,61,53,99,77,60,29.97,29.77,11,2,12,0.52
2013-5-19,75,68,62,65,63,61,99,83,67,29.78,29.55,7,1,16,1.08
2013-5-20,70,64,58,62,60,56,99,85,65,29.57,29.50,6,1,12,0.22
2013-5-21,57,50,45,56,49,45,99,99,96,29.73,29.53,6,2,14,0.48
2013-5-22,51,47,43,49,46,43,99,96,84,30.01,29.71,12,4,16,0.20
2013-5-23,60,48,42,44,39,32,96,74,34,30.34,30.01,8,4,12,0.14
2013-5-24,64,51,39,53,41,32,96,71,46,30.37,30.20,0,0,6,0.46
2013-5-25,62,56,52,53,50,46,99,83,58,30.27,30.21,6,2,10,0.52
2013-5-26,59,56,53,43,41,39,68,58,47,30.21,30.15,0,0,9,0.00
2013-5-27,60,58,55,53,50,47,88,77,69,29.99,29.83,3,0,9,0.00
2013-5-28,60,56,53,56,54,51,98,93,87,29.85,29.72,3,0,9,0.00
2013-5-29,76,62,55,66,58,55,99,89,57,29.79,29.64,7,1,12,0.00
2013-5-30,72,66,63,66,63,61,98,92,70,29.66,29.50,6,1,14,0.48
2013-5-31,68,62,58,63,59,52,98,89,57,29.52,29.49,8,2,10,0.34
2013-6-1,66,56,50,58,51,44,97,83,72,29.94,29.54,10,3,17,0.04
2013-6-2,64,53,46,45,43,41,86,69,43,30.07,29.94,7,2,17,0.04
2013-6-3,65,54,43,48,46,43,99,75,47,30.06,29.96,4,0,5,0.00
2013-6-4,61,57,53,57,49,42,98,77,57,30.09,29.98,5,1,13,0.48
2013-6-5,59,55,50,57,54,50,99,97,89,30.05,29.95,5,0,8,0.50
2013-6-6,55,51,48,51,50,48,99,95,85,30.04,29.98,5,0,8,0.10
2013-6-7,63,54,48,53,50,47,98,88,66,30.06,29.92,4,0,4,0.00
2013-6-8,68,58,52,55,53,51,99,86,58,29.92,29.88,2,0,4,0.00
2013-6-9,62,58,55,59,55,52,99,92,76,29.90,29.80,5,0,8,0.50
2013-6-10,61,59,58,60,59,58,99,98,93,29.86,29.80,3,0,3,0.14
2013-6-11,76,67,53,68,63,53,99,87,64,29.88,29.82,0,0,0,0.02
2013-6-12,74,64,58,61,56,50,97,76,52,29.94,29.78,7,1,10,0.36
2013-6-13,76,65,54,56,53,49,89,67,45,30.10,29.94,6,1,8,0.32
2013-6-14,77,62,55,59,53,50,90,75,54,30.08,29.86,5,1,10,0.00
2013-6-15,72,67,59,64,61,53,93,81,69,29.88,29.84,4,0,9,0.12
2013-6-16,73,60,53,56,53,51,95,80,49,29.91,29.83,5,0,5,0.12
2013-6-17,79,64,56,58,56,51,96,75,41,30.00,29.85,6,1,16,0.02
2013-6-18,75,58,48,55,49,43,88,74,50,30.11,30.02,4,0,7,0.00
2013-6-19,83,68,57,61,56,53,86,68,44,30.05,29.93,7,0,11,0.00
2013-6-20,79,71,68,65,61,58,78,70,63,29.97,29.94,0,0,6,0.00
2013-6-22,69,68,66,66,66,65,96,92,90,29.98,29.93,0,0,0,0.46
2013-7-3,68,68,67,52,52,51,58,56,55,29.95,29.95,0,0,0,0.00
2013-7-4,85,72,62,63,56,50,82,60,37,29.96,29.84,2,0,9,0.00
2013-7-5,85,78,69,64,60,56,68,56,43,29.88,29.78,6,1,16,0.00
2013-7-6,85,77,72,73,64,61,78,65,58,29.85,29.79,3,0,9,0.00
2013-7-7,90,78,68,72,68,64,96,74,54,29.90,29.80,2,0,7,0.00
2013-7-8,82,69,60,69,65,60,100,89,64,30.01,29.89,2,0,6,0.00
2013-7-9,83,75,67,70,68,62,97,79,59,29.96,29.73,6,2,13,0.00
2013-7-10,78,70,59,62,56,-100,91,67,45,30.05,29.90,8,3,21,0.00
2013-7-11,83,70,56,62,58,56,100,71,44,30.11,29.96,3,0,9,0.00
2013-7-12,85,77,69,63,60,56,68,57,46,29.99,29.86,6,2,15,0.00
2013-7-13,78,72,67,70,66,59,98,82,55,30.06,29.91,4,1,14,0.00
2013-7-14,82,73,70,67,63,59,90,72,57,30.18,30.03,5,1,11,0.00
2013-7-15,86,75,65,68,66,64,98,76,51,30.23,30.15,6,0,10,0.00
2013-7-16,89,81,73,72,69,66,90,68,49,30.20,30.16,4,0,7,0.00
2013-7-17,91,81,70,73,69,66,96,71,45,30.24,30.11,6,0,11,0.00
2013-7-18,91,83,73,73,62,-100,91,63,47,30.10,29.74,6,2,11,0.00
2013-7-19,81,77,68,70,64,58,84,65,47,29.87,29.71,7,3,15,0.00
2013-7-20,76,67,63,64,54,-100,98,77,52,29.95,29.86,2,0,7,0.00
2013-7-21,79,69,58,66,60,50,84,73,63,29.95,29.80,6,0,11,0.00
2013-7-22,82,74,67,69,62,55,90,68,49,29.84,29.67,9,2,18,0.00
2013-7-23,74,65,56,56,54,52,96,71,50,30.02,29.84,6,1,12,0.00
2013-7-24,75,65,55,61,57,54,97,77,55,30.07,29.95,1,0,5,0.00
2013-7-25,77,69,60,65,62,58,96,79,62,29.97,29.89,3,0,11,0.00
2013-7-26,66,62,55,62,55,48,96,81,65,30.09,29.90,11,4,22,0.00
2013-7-27,61,55,50,53,50,47,98,82,66,30.09,29.94,8,2,16,0.00
2013-7-28,70,60,51,55,51,47,92,74,54,30.04,29.97,7,2,13,0.00
2013-7-29,76,63,49,59,54,49,100,76,46,30.12,30.06,5,0,10,0.00
2013-7-30,70,64,59,65,62,58,99,92,81,30.10,30.05,0,0,0,0.00
2013-7-31,77,67,60,65,59,51,100,79,46,30.06,29.98,4,0,12,0.00
2013-8-1,79,66,52,61,56,51,100,73,45,30.02,29.85,1,0,7,0.00
2013-8-2,74,65,54,59,55,52,99,75,47,30.03,29.85,6,1,15,0.00
2013-8-3,74,61,50,56,49,-100,100,74,44,30.18,30.03,7,0,11,0.00
2013-8-4,76,61,50,57,53,50,100,79,48,30.23,30.04,3,0,8,0.00
2013-8-5,79,68,60,66,54,-100,99,77,59,30.00,29.78,5,0,9,0.00
2013-8-6,80,66,55,66,61,55,100,85,62,29.84,29.65,4,0,10,0.00
2013-8-7,73,64,57,61,56,50,100,78,46,30.02,29.77,7,1,11,0.00
2013-8-8,74,63,53,62,57,52,100,81,55,30.05,29.97,3,0,7,0.00
2013-8-9,72,65,54,60,55,50,100,73,48,30.12,29.98,8,2,15,0.00
2013-8-10,73,63,53,58,55,52,99,78,50,30.18,30.08,3,0,8,0.00
2013-8-11,78,66,57,64,60,56,96,81,53,30.09,29.98,0,0,5,0.00
2013-8-12,77,67,56,62,57,53,99,74,45,30.05,30.00,7,2,16,0.00
2013-8-13,72,61,51,58,50,-100,100,76,43,30.20,30.08,2,0,9,0.00
2013-8-14,76,61,50,58,50,-100,100,79,42,30.19,30.09,5,0,8,0.00
2013-8-15,75,57,51,62,47,-100,100,82,57,30.12,30.07,0,0,6,0.00
2013-8-16,77,62,55,61,51,-100,100,78,48,30.18,30.11,3,0,6,0.00
2013-8-17,79,67,56,59,55,-100,99,70,48,30.18,30.09,4,1,12,0.00
2013-8-18,80,71,57,59,57,55,94,65,45,30.12,29.98,3,1,9,0.00
2013-8-19,84,72,67,68,50,-100,77,66,57,29.98,29.88,4,1,9,0.00
2013-8-20,89,76,70,72,65,-100,89,74,55,29.90,29.84,3,1,10,0.00
2013-8-21,86,78,72,73,70,58,95,77,48,30.00,29.82,4,0,10,0.00
2013-8-22,81,74,63,58,53,48,74,50,32,30.13,30.00,5,1,12,0.00
2013-8-23,84,70,56,66,57,51,84,65,43,30.14,30.02,5,1,10,0.00
2013-8-24,87,78,70,70,67,65,85,69,54,30.05,29.91,7,2,24,0.00
2013-8-25,92,83,77,73,71,69,78,67,52,29.98,29.91,4,1,9,0.00
2013-8-26,91,84,76,74,73,71,90,71,53,29.96,29.83,5,0,12,0.00
2013-8-27,85,79,75,75,73,72,94,82,66,29.83,29.78,4,1,10,0.00
2013-8-28,85,80,69,70,67,65,88,65,52,30.01,29.96,4,0,8,0.00
2013-8-29,90,82,70,74,70,67,93,70,52,29.99,29.83,2,0,8,0.00
2013-8-30,81,74,69,70,65,61,92,75,57,29.95,29.81,5,1,10,0.00
2013-8-31,85,67,60,67,60,-100,98,83,52,29.90,29.71,5,0,9,0.00
2013-9-1,70,67,59,63,58,53,90,76,66,29.99,29.73,8,3,21,0.00
2013-9-2,67,57,51,54,53,50,98,87,62,30.10,29.99,3,0,8,0.00
2013-9-3,76,61,47,60,55,47,100,82,55,30.08,29.98,1,0,5,0.00
2013-9-4,80,66,57,64,59,55,100,81,55,30.15,30.00,3,0,7,0.00
2013-9-5,81,69,57,64,58,52,89,70,44,30.22,30.09,2,0,8,0.00
2013-9-6,88,78,70,69,66,63,94,69,46,30.09,29.85,5,0,12,0.00
2013-9-7,88,74,66,69,63,-100,97,71,45,30.03,29.85,6,1,13,0.00
2013-9-8,69,65,62,61,58,52,88,78,70,30.06,29.88,3,1,9,0.00
2013-9-9,87,73,64,72,68,60,97,85,58,29.88,29.62,1,0,10,0.00
2013-9-10,81,72,65,69,64,58,98,79,47,29.97,29.75,2,0,8,0.00
2013-9-11,80,71,61,63,56,50,98,63,36,30.06,29.97,10,2,15,0.00
2013-9-12,69,61,50,56,50,46,98,70,44,30.23,30.06,8,2,15,0.00
2013-9-13,68,55,40,51,46,40,100,76,46,30.28,30.06,2,0,12,0.00
2013-9-14,70,57,49,58,51,47,100,83,52,30.07,29.89,1,0,8,0.00
2013-9-15,64,57,49,56,53,47,100,89,66,30.32,29.88,7,1,11,0.00
2013-9-16,65,51,37,47,43,37,100,78,43,30.41,30.24,2,0,8,0.00
2013-9-17,66,58,49,57,51,43,96,78,63,30.24,29.94,7,2,14,0.00
2013-9-18,69,63,59,68,62,59,100,98,95,29.90,29.68,0,-368,4,0.00
2013-9-19,74,69,62,69,66,58,99,91,74,29.78,29.65,6,-70,13,0.00
2013-9-20,62,57,49,60,53,48,97,86,68,29.92,29.77,9,-33,16,0.00
2013-9-21,60,51,46,50,45,-100,100,84,62,29.99,29.91,4,0,11,0.00
2013-9-22,70,58,45,56,50,45,100,79,60,29.96,29.83,6,2,13,0.00
2013-9-23,71,64,55,55,53,51,86,69,54,29.92,29.85,7,2,17,0.00
2013-9-24,73,61,51,56,53,50,97,78,52,29.96,29.91,2,-41,7,0.00
2013-9-25,72,60,51,56,53,50,100,80,54,29.96,29.85,2,0,13,0.00
2013-9-26,79,66,55,61,56,52,92,71,51,29.91,29.80,6,2,19,0.00
2013-9-27,80,72,66,64,61,59,81,69,53,29.89,29.77,6,3,17,0.00
2013-9-28,74,59,48,64,52,-100,99,81,61,29.91,29.59,6,1,14,0.00
2013-9-29,73,61,46,52,48,45,97,66,41,29.93,29.75,4,1,11,0.00
2013-9-30,76,67,59,55,51,47,70,58,45,29.75,29.57,5,1,13,0.00
2013-10-1,69,57,49,45,43,39,81,64,33,29.97,29.88,0,0,3,0.00
2013-10-2,72,53,41,54,46,41,100,80,33,30.03,29.86,6,1,12,0.00
2013-10-3,57,55,54,57,54,53,100,99,97,29.94,29.86,4,1,12,0.00
2013-10-4,58,55,53,55,53,52,99,94,86,30.00,29.86,6,2,13,0.00
2013-10-5,57,54,46,57,53,46,100,100,97,29.86,29.72,1,0,12,0.00
2013-10-6,51,48,44,50,48,44,100,99,95,29.82,29.67,6,1,11,0.00
2013-10-7,64,50,40,51,44,40,100,84,48,29.95,29.81,5,-13,13,0.00
2013-10-8,74,63,50,51,47,44,84,59,40,29.94,29.76,7,2,19,0.00
2013-10-9,74,65,57,53,51,48,77,61,48,30.01,29.88,4,-46,14,0.00
2013-10-10,76,63,52,55,51,47,84,65,46,30.01,29.85,6,2,13,0.00
2013-10-11,72,64,56,61,54,51,91,72,55,29.86,29.59,8,3,17,0.00
2013-10-16,53,45,37,45,41,37,100,87,58,29.94,29.83,6,1,14,0.00
2013-10-17,50,44,37,48,42,37,100,93,75,29.85,29.76,5,0,13,0.00
2013-10-18,51,43,36,42,37,34,100,81,52,29.96,29.83,5,1,14,0.00
2013-10-19,45,39,32,41,35,-100,100,91,68,29.81,29.67,8,1,14,0.00
2013-10-20,37,34,30,37,34,30,100,100,96,29.85,29.62,11,0,16,0.00
2013-10-21,39,34,31,35,27,24,95,77,63,29.93,29.85,7,-13,18,0.00
2013-10-22,40,32,24,34,30,24,100,92,71,30.01,29.93,5,0,10,0.00
2013-10-23,36,33,31,34,29,23,100,86,65,30.09,29.98,9,1,17,0.00
2013-10-24,41,36,32,33,29,24,93,75,64,30.27,30.09,7,2,14,0.00
2013-10-25,56,48,29,45,38,29,100,71,59,30.24,29.75,7,3,13,0.00
2013-10-26,51,42,36,42,32,30,81,69,59,30.09,29.77,10,6,19,0.00
2013-10-27,55,41,31,38,32,29,96,73,50,30.14,29.79,8,0,13,0.00
2013-10-28,41,35,29,32,26,23,88,71,48,30.44,30.14,5,1,18,0.00
2013-10-29,37,34,29,36,30,27,100,88,79,30.41,30.09,2,0,8,0.00
2013-10-30,47,42,36,47,42,36,100,100,100,30.08,29.65,0,0,4,0.00
2013-10-31,47,42,39,47,42,39,100,100,100,29.65,29.37,4,0,12,0.00
2013-11-1,48,42,36,41,38,34,100,88,66,29.82,29.39,8,1,13,0.00
2013-11-2,49,38,31,38,31,-100,100,82,58,30.06,29.82,7,1,11,0.00
2013-11-4,48,43,33,45,38,33,100,84,64,30.11,29.79,4,1,15,0.00
2013-11-5,40,33,28,37,32,28,100,94,69,30.22,30.03,2,0,7,0.00
2013-11-6,39,32,27,33,30,27,100,93,71,30.12,30.02,0,0,5,0.00
2013-11-7,37,28,21,33,27,21,100,96,75,30.21,30.12,4,-26,10,0.00
2013-11-8,43,34,21,39,30,21,100,87,64,30.16,29.55,6,-12,17,0.00
2013-11-9,42,40,37,40,33,-100,100,81,67,30.16,29.57,15,4,25,0.00
2013-11-10,40,36,29,34,31,26,90,80,70,30.30,30.09,8,2,15,0.00
2013-11-11,36,23,14,33,15,10,87,73,61,30.70,30.10,12,4,18,0.00
2013-11-12,27,19,9,18,13,8,95,77,58,30.75,30.40,0,0,9,0.00
2013-11-13,51,37,23,36,28,17,85,71,56,30.39,29.83,6,1,16,0.00
2013-11-14,52,41,32,40,36,31,97,83,64,29.83,29.72,2,0,9,0.00
2013-11-15,54,43,29,40,36,29,100,80,57,29.80,29.59,4,1,11,0.00
2013-11-16,46,44,41,46,40,-100,100,92,71,29.59,29.21,7,2,16,0.00
2013-11-24,32,19,4,20,13,3,97,76,57,30.67,29.92,6,2,19,0.00
2013-11-25,38,33,29,30,26,20,94,74,63,30.05,29.85,11,2,22,0.00
2013-11-26,29,19,10,22,11,6,87,70,60,30.36,30.05,18,5,35,0.00
2013-11-27,24,14,2,14,9,1,99,82,64,30.36,30.04,2,0,10,0.00
2013-11-28,25,20,8,17,14,7,96,76,65,30.47,30.03,9,-38,17,0.00
2013-11-29,31,22,6,24,15,-100,99,81,66,30.48,30.12,7,-52,13,0.00
2013-11-30,38,30,20,29,24,-100,100,81,69,30.15,30.00,4,0,9,0.00
2013-12-1,33,24,14,28,22,14,100,93,78,30.17,29.90,0,0,2,0.00
2013-12-2,37,32,27,34,31,26,100,96,85,29.90,29.55,6,1,11,0.00
2013-12-3,34,34,31,34,34,31,100,100,100,29.77,29.56,1,0,7,0.00
2013-12-4,31,26,15,31,26,14,100,100,96,29.76,29.44,9,1,17,0.00
2013-12-5,13,4,-1,12,2,-3,96,90,83,30.28,29.63,9,3,18,0.00
2013-12-6,2,-4,-10,-2,-6,-12,95,89,79,30.59,30.28,8,0,11,0.00
2013-12-7,0,-8,-14,-5,-11,-100,94,88,79,30.66,30.52,1,0,13,0.00
2013-12-8,9,2,-9,8,1,-10,99,95,92,30.53,29.99,3,0,8,0.00
2013-12-9,6,-1,-5,6,-2,-7,99,91,80,30.04,29.82,7,-12,13,0.00
2013-12-10,6,3,-1,4,1,-2,97,91,80,30.24,29.72,10,-62,15,0.00
2013-12-11,1,-4,-10,-2,-8,-12,91,84,76,30.52,30.24,8,0,17,0.00
2013-12-12,16,9,-4,14,6,-5,96,88,79,30.25,30.11,1,0,7,0.00
2013-12-13,16,11,7,14,9,5,93,89,85,30.26,30.10,8,2,11,0.00
2013-12-14,12,8,-1,9,4,-100,96,91,88,30.24,30.05,7,-92,10,0.00
2013-12-15,0,-1,-3,-4,-6,-8,90,79,71,30.14,30.07,8,2,15,0.00
2013-12-16,17,8,0,17,5,-7,100,89,71,30.08,29.85,4,0,11,0.00
2013-12-17,32,22,4,31,18,3,100,86,71,30.07,29.81,15,5,26,0.00
2013-12-18,32,22,4,26,18,3,98,89,72,30.03,29.60,6,2,12,0.00
2013-12-19,24,16,12,23,12,9,97,87,80,30.07,29.78,10,5,15,0.00
2013-12-20,18,14,8,14,12,8,98,93,85,30.02,29.83,8,0,11,0.00